Location: Unspecified
(0.0000°N, 0.0000°E)
Time: 01:53:58
(UTC+00:00)

Vanguard 1 - Pass Details

Date: 25 November 2019
Orbit: 652 x 3832 km, 34.3° (Epoch: 10 December)

Event Time Altitude Azimuth Distance (km) Brightness Sun altitude
Rises 21:42:53 0° 225° (SW) 4,826 14.2 -53.2°
Reaches altitude 10° 21:50:08 10° 192° (SSW) 4,691 13.8 -54.7°
Maximum altitude 21:53:28 11° 177° (S) 4,957 13.8 -55.3°
Drops below altitude 10° 21:57:13 10° 163° (SSE) 5,426 13.9 -56.0°
Sets 22:09:03 0° 133° (SE) 7,385 14.5 -58.3°
